Year,Month,Day,Hour,Minute,Value (Times are PST for temperature in C)
2009,09,23,00,00,12.80
2009,09,23,00,01,12.80
2009,09,23,00,02,12.80
2009,09,23,00,03,12.80
2009,09,23,00,04,12.80
2009,09,23,00,05,12.80
2009,09,23,00,06,12.70
2009,09,23,00,07,12.70
2009,09,23,00,08,12.70
2009,09,23,00,09,12.70
2009,09,23,00,10,12.70
2009,09,23,00,11,12.70
2009,09,23,00,12,12.70
2009,09,23,00,13,12.70
2009,09,23,00,14,12.70
2009,09,23,00,15,12.60
2009,09,23,00,16,12.60
2009,09,23,00,17,12.60
2009,09,23,00,18,12.60
2009,09,23,00,19,12.60
2009,09,23,00,20,12.60
2009,09,23,00,21,12.60
2009,09,23,00,22,12.60
2009,09,23,00,23,12.60
2009,09,23,00,24,12.60
2009,09,23,00,25,12.60
2009,09,23,00,26,12.60
2009,09,23,00,27,12.50
2009,09,23,00,28,12.50
2009,09,23,00,29,12.50
2009,09,23,00,30,12.50
2009,09,23,00,31,12.40
2009,09,23,00,32,12.40
2009,09,23,00,33,12.40
2009,09,23,00,34,12.40
2009,09,23,00,35,12.30
2009,09,23,00,36,12.30
2009,09,23,00,37,12.30
2009,09,23,00,38,12.30
2009,09,23,00,39,12.30
2009,09,23,00,40,12.30
2009,09,23,00,41,12.20
2009,09,23,00,42,12.20
2009,09,23,00,43,12.20
2009,09,23,00,44,12.20
2009,09,23,00,45,12.20
2009,09,23,00,46,12.20
2009,09,23,00,47,12.20
2009,09,23,00,48,12.10
2009,09,23,00,49,12.10
2009,09,23,00,50,12.10
2009,09,23,00,51,12.10
2009,09,23,00,52,12.10
2009,09,23,00,53,12.10
2009,09,23,00,54,12.10
2009,09,23,00,55,12.10
2009,09,23,00,56,12.10
2009,09,23,00,57,12.00
2009,09,23,00,58,12.00
2009,09,23,00,59,12.00
2009,09,23,01,00,12.00
2009,09,23,01,01,11.90
2009,09,23,01,02,11.90
2009,09,23,01,03,11.90
2009,09,23,01,04,11.90
2009,09,23,01,05,11.90
2009,09,23,01,06,11.80
2009,09,23,01,07,11.80
2009,09,23,01,08,11.80
2009,09,23,01,09,11.80
2009,09,23,01,10,11.80
2009,09,23,01,11,11.70
2009,09,23,01,12,11.70
2009,09,23,01,13,11.70
2009,09,23,01,14,11.70
2009,09,23,01,15,11.70
2009,09,23,01,16,11.70
2009,09,23,01,17,11.70
2009,09,23,01,18,11.60
2009,09,23,01,19,11.60
2009,09,23,01,20,11.60
2009,09,23,01,21,11.60
2009,09,23,01,22,11.60
2009,09,23,01,23,11.60
2009,09,23,01,24,11.60
2009,09,23,01,25,11.60
2009,09,23,01,26,11.60
2009,09,23,01,27,11.60
2009,09,23,01,28,11.60
2009,09,23,01,29,11.60
2009,09,23,01,30,11.60
2009,09,23,01,31,11.60
2009,09,23,01,32,11.60
2009,09,23,01,33,11.60
2009,09,23,01,34,11.70
2009,09,23,01,35,11.70
2009,09,23,01,36,11.70
2009,09,23,01,37,11.70
2009,09,23,01,38,11.70
2009,09,23,01,39,11.70
2009,09,23,01,40,11.70
2009,09,23,01,41,11.70
2009,09,23,01,42,11.70
2009,09,23,01,43,11.70
2009,09,23,01,44,11.60
2009,09,23,01,45,11.60
2009,09,23,01,46,11.60
2009,09,23,01,47,11.60
2009,09,23,01,48,11.60
2009,09,23,01,49,11.60
2009,09,23,01,50,11.60
2009,09,23,01,51,11.50
2009,09,23,01,52,11.50
2009,09,23,01,53,11.50
2009,09,23,01,54,11.50
2009,09,23,01,55,11.50
2009,09,23,01,56,11.50
2009,09,23,01,57,11.50
2009,09,23,01,58,11.40
2009,09,23,01,59,11.40
2009,09,23,02,00,11.40
2009,09,23,02,01,11.40
2009,09,23,02,02,11.30
2009,09,23,02,03,11.30
2009,09,23,02,04,11.30
2009,09,23,02,05,11.30
2009,09,23,02,06,11.30
2009,09,23,02,07,11.30
2009,09,23,02,08,11.30
2009,09,23,02,09,11.30
2009,09,23,02,10,11.30
2009,09,23,02,11,11.30
2009,09,23,02,12,11.30
2009,09,23,02,13,11.30
2009,09,23,02,14,11.30
2009,09,23,02,15,11.30
2009,09,23,02,16,11.30
2009,09,23,02,17,11.30
2009,09,23,02,18,11.30
2009,09,23,02,19,11.30
2009,09,23,02,20,11.30
2009,09,23,02,21,11.30
2009,09,23,02,22,11.30
2009,09,23,02,23,11.30
2009,09,23,02,24,11.30
2009,09,23,02,25,11.30
2009,09,23,02,26,11.30
2009,09,23,02,27,11.20
2009,09,23,02,28,11.20
2009,09,23,02,29,11.20
2009,09,23,02,30,11.20
2009,09,23,02,31,11.20
2009,09,23,02,32,11.20
2009,09,23,02,33,11.10
2009,09,23,02,34,11.10
2009,09,23,02,35,11.10
2009,09,23,02,36,11.10
2009,09,23,02,37,11.10
2009,09,23,02,38,11.10
2009,09,23,02,39,11.10
2009,09,23,02,40,11.10
2009,09,23,02,41,11.10
2009,09,23,02,42,11.10
2009,09,23,02,43,11.10
2009,09,23,02,44,11.10
2009,09,23,02,45,11.00
2009,09,23,02,46,11.00
2009,09,23,02,47,10.90
2009,09,23,02,48,10.90
2009,09,23,02,49,10.90
2009,09,23,02,50,10.90
2009,09,23,02,51,10.90
2009,09,23,02,52,10.90
2009,09,23,02,53,10.90
2009,09,23,02,54,10.90
2009,09,23,02,55,10.90
2009,09,23,02,56,10.90
2009,09,23,02,57,10.90
2009,09,23,02,58,10.90
2009,09,23,02,59,10.90
2009,09,23,03,00,10.90
2009,09,23,03,01,11.00
2009,09,23,03,02,11.00
2009,09,23,03,03,11.00
2009,09,23,03,04,11.00
2009,09,23,03,05,10.90
2009,09,23,03,06,10.90
2009,09,23,03,07,10.90
2009,09,23,03,08,10.80
2009,09,23,03,09,10.80
2009,09,23,03,10,10.80
2009,09,23,03,11,10.70
2009,09,23,03,12,10.70
2009,09,23,03,13,10.70
2009,09,23,03,14,10.70
2009,09,23,03,15,10.70
2009,09,23,03,16,10.70
2009,09,23,03,17,10.70
2009,09,23,03,18,10.70
2009,09,23,03,19,10.70
2009,09,23,03,20,10.70
2009,09,23,03,21,10.60
2009,09,23,03,22,10.60
2009,09,23,03,23,10.60
2009,09,23,03,24,10.60
2009,09,23,03,25,10.60
2009,09,23,03,26,10.60
2009,09,23,03,27,10.60
2009,09,23,03,28,10.60
2009,09,23,03,29,10.60
2009,09,23,03,30,10.50
2009,09,23,03,31,10.50
2009,09,23,03,32,10.50
2009,09,23,03,33,10.50
2009,09,23,03,34,10.50
2009,09,23,03,35,10.50
2009,09,23,03,36,10.40
2009,09,23,03,37,10.40
2009,09,23,03,38,10.40
2009,09,23,03,39,10.40
2009,09,23,03,40,10.40
2009,09,23,03,41,10.40
2009,09,23,03,42,10.40
2009,09,23,03,43,10.40
2009,09,23,03,44,10.40
2009,09,23,03,45,10.40
2009,09,23,03,46,10.40
2009,09,23,03,47,10.40
2009,09,23,03,48,10.40
2009,09,23,03,49,10.40
2009,09,23,03,50,10.40
2009,09,23,03,51,10.30
2009,09,23,03,52,10.30
2009,09,23,03,53,10.30
2009,09,23,03,54,10.30
2009,09,23,03,55,10.30
2009,09,23,03,56,10.30
2009,09,23,03,57,10.30
2009,09,23,03,58,10.30
2009,09,23,03,59,10.30
2009,09,23,04,00,10.30
2009,09,23,04,01,10.20
2009,09,23,04,02,10.20
2009,09,23,04,03,10.20
2009,09,23,04,05,10.20
2009,09,23,04,06,10.20
2009,09,23,04,07,10.20
2009,09,23,04,08,10.20
2009,09,23,04,09,10.20
2009,09,23,04,10,10.20
2009,09,23,04,11,10.20
2009,09,23,04,12,10.10
2009,09,23,04,13,10.10
2009,09,23,04,14,10.10
2009,09,23,04,15,10.00
2009,09,23,04,16,10.00
2009,09,23,04,17,10.00
2009,09,23,04,18,9.90
2009,09,23,04,19,9.90
2009,09,23,04,20,9.90
2009,09,23,04,21,9.90
2009,09,23,04,22,9.90
2009,09,23,04,23,9.90
2009,09,23,04,24,9.90
2009,09,23,04,25,9.90
2009,09,23,04,26,9.90
2009,09,23,04,27,9.90
2009,09,23,04,28,9.90
2009,09,23,04,29,9.90
2009,09,23,04,30,9.90
2009,09,23,04,31,9.90
2009,09,23,04,32,9.90
2009,09,23,04,33,9.90
2009,09,23,04,34,9.90
2009,09,23,04,35,9.90
2009,09,23,04,36,9.90
2009,09,23,04,37,9.90
2009,09,23,04,38,9.90
2009,09,23,04,39,9.90
2009,09,23,04,40,9.90
2009,09,23,04,41,9.90
2009,09,23,04,42,9.90
2009,09,23,04,43,9.90
2009,09,23,04,44,9.90
2009,09,23,04,45,9.90
2009,09,23,04,46,9.90
2009,09,23,04,47,9.90
2009,09,23,04,48,9.80
2009,09,23,04,49,9.80
2009,09,23,04,50,9.80
2009,09,23,04,51,9.80
2009,09,23,04,52,9.80
2009,09,23,04,53,9.80
2009,09,23,04,54,9.80
2009,09,23,04,55,9.80
2009,09,23,04,56,9.80
2009,09,23,04,57,9.80
2009,09,23,04,58,9.80
2009,09,23,04,59,9.80
2009,09,23,05,00,9.80
2009,09,23,05,01,9.70
2009,09,23,05,02,9.70
2009,09,23,05,03,9.70
2009,09,23,05,04,9.70
2009,09,23,05,05,9.60
2009,09,23,05,06,9.60
2009,09,23,05,07,9.60
2009,09,23,05,08,9.60
2009,09,23,05,09,9.70
2009,09,23,05,10,9.70
2009,09,23,05,11,9.70
2009,09,23,05,12,9.70
2009,09,23,05,13,9.70
2009,09,23,05,14,9.70
2009,09,23,05,15,9.60
2009,09,23,05,16,9.60
2009,09,23,05,17,9.60
2009,09,23,05,18,9.60
2009,09,23,05,19,9.60
2009,09,23,05,20,9.70
2009,09,23,05,21,9.70
2009,09,23,05,22,9.80
2009,09,23,05,23,9.80
2009,09,23,05,24,9.80
2009,09,23,05,25,9.80
2009,09,23,05,26,9.80
2009,09,23,05,27,9.80
2009,09,23,05,28,9.90
2009,09,23,05,29,9.90
2009,09,23,05,30,9.90
2009,09,23,05,31,10.00
2009,09,23,05,32,10.00
2009,09,23,05,33,10.10
2009,09,23,05,34,10.10
2009,09,23,05,35,10.20
2009,09,23,05,36,10.20
2009,09,23,05,37,10.20
2009,09,23,05,38,10.20
2009,09,23,05,39,10.20
2009,09,23,05,40,10.20
2009,09,23,05,41,10.20
2009,09,23,05,42,10.20
2009,09,23,05,43,10.10
2009,09,23,05,44,10.10
2009,09,23,05,45,10.10
2009,09,23,05,46,10.00
2009,09,23,05,47,10.00
2009,09,23,05,48,9.90
2009,09,23,05,49,9.90
2009,09,23,05,50,9.80
2009,09,23,05,51,9.80
2009,09,23,05,52,9.80
2009,09,23,05,53,9.80
2009,09,23,05,54,9.70
2009,09,23,05,55,9.70
2009,09,23,05,56,9.70
2009,09,23,05,57,9.70
2009,09,23,05,58,9.70
2009,09,23,05,59,9.70
2009,09,23,06,00,9.70
2009,09,23,06,01,9.70
2009,09,23,06,02,9.70
2009,09,23,06,03,9.70
2009,09,23,06,04,9.70
2009,09,23,06,05,9.60
2009,09,23,06,06,9.60
2009,09,23,06,07,9.60
2009,09,23,06,08,9.60
2009,09,23,06,09,9.50
2009,09,23,06,10,9.50
2009,09,23,06,11,9.40
2009,09,23,06,12,9.40
2009,09,23,06,13,9.40
2009,09,23,06,14,9.40
2009,09,23,06,15,9.40
2009,09,23,06,16,9.40
2009,09,23,06,17,9.40
2009,09,23,06,18,9.40
2009,09,23,06,19,9.40
2009,09,23,06,20,9.40
2009,09,23,06,21,9.40
2009,09,23,06,22,9.40
2009,09,23,06,23,9.40
2009,09,23,06,24,9.50
2009,09,23,06,25,9.50
2009,09,23,06,26,9.50
2009,09,23,06,27,9.50
2009,09,23,06,28,9.50
2009,09,23,06,29,9.50
2009,09,23,06,30,9.50
2009,09,23,06,31,9.40
2009,09,23,06,32,9.40
2009,09,23,06,33,9.40
2009,09,23,06,34,9.40
2009,09,23,06,35,9.30
2009,09,23,06,36,9.30
2009,09,23,06,37,9.30
2009,09,23,06,38,9.30
2009,09,23,06,39,9.30
2009,09,23,06,40,9.30
2009,09,23,06,41,9.30
2009,09,23,06,42,9.30
2009,09,23,06,43,9.30
2009,09,23,06,44,9.30
2009,09,23,06,45,9.30
2009,09,23,06,46,9.30
2009,09,23,06,47,9.30
2009,09,23,06,48,9.30
2009,09,23,06,49,9.30
2009,09,23,06,50,9.30
2009,09,23,06,51,9.30
2009,09,23,06,52,9.20
2009,09,23,06,53,9.20
2009,09,23,06,54,9.20
2009,09,23,06,55,9.20
2009,09,23,06,56,9.20
2009,09,23,06,57,9.10
2009,09,23,06,58,9.10
2009,09,23,06,59,9.10
2009,09,23,07,00,9.10
2009,09,23,07,01,9.10
2009,09,23,07,02,9.10
2009,09,23,07,03,9.10
2009,09,23,07,04,9.10
2009,09,23,07,05,9.10
2009,09,23,07,06,9.10
2009,09,23,07,07,9.10
2009,09,23,07,08,9.10
2009,09,23,07,09,9.10
2009,09,23,07,10,9.10
2009,09,23,07,11,9.20
2009,09,23,07,12,9.20
2009,09,23,07,13,9.20
2009,09,23,07,14,9.20
2009,09,23,07,15,9.20
2009,09,23,07,16,9.20
2009,09,23,07,17,9.20
2009,09,23,07,18,9.20
2009,09,23,07,19,9.20
2009,09,23,07,20,9.20
2009,09,23,07,21,9.20
2009,09,23,07,22,9.20
2009,09,23,07,23,9.20
2009,09,23,07,24,9.20
2009,09,23,07,25,9.20
2009,09,23,07,26,9.20
2009,09,23,07,27,9.20
2009,09,23,07,28,9.20
2009,09,23,07,29,9.20
2009,09,23,07,30,9.20
2009,09,23,07,31,9.20
2009,09,23,07,32,9.20
2009,09,23,07,33,9.20
2009,09,23,07,34,9.20
2009,09,23,07,35,9.20
2009,09,23,07,36,9.20
2009,09,23,07,37,9.20
2009,09,23,07,38,9.20
2009,09,23,07,39,9.20
2009,09,23,07,40,9.10
2009,09,23,07,41,9.20
2009,09,23,07,42,9.20
2009,09,23,07,43,9.20
2009,09,23,07,44,9.20
2009,09,23,07,45,9.30
2009,09,23,07,46,9.30
2009,09,23,07,47,9.40
2009,09,23,07,48,9.50
2009,09,23,07,49,9.60
2009,09,23,07,50,9.60
2009,09,23,07,51,9.70
2009,09,23,07,52,9.70
2009,09,23,07,53,9.80
2009,09,23,07,54,9.80
2009,09,23,07,55,9.90
2009,09,23,07,56,9.90
2009,09,23,07,57,10.00
2009,09,23,07,58,10.00
2009,09,23,07,59,10.10
2009,09,23,08,00,10.10
2009,09,23,08,01,10.20
2009,09,23,08,02,10.30
2009,09,23,08,03,10.30
2009,09,23,08,04,10.40
2009,09,23,08,05,10.50
2009,09,23,08,06,10.50
2009,09,23,08,07,10.60
2009,09,23,08,08,10.70
2009,09,23,08,09,10.70
2009,09,23,08,10,10.80
2009,09,23,08,11,10.90
2009,09,23,08,12,11.00
2009,09,23,08,13,11.10
2009,09,23,08,14,11.20
2009,09,23,08,15,11.30
2009,09,23,08,16,11.30
2009,09,23,08,17,11.40
2009,09,23,08,18,11.50
2009,09,23,08,19,11.70
2009,09,23,08,20,11.80
2009,09,23,08,21,11.90
2009,09,23,08,22,12.00
2009,09,23,08,23,12.10
2009,09,23,08,24,12.30
2009,09,23,08,25,12.40
2009,09,23,08,26,12.50
2009,09,23,08,27,12.60
2009,09,23,08,28,12.80
2009,09,23,08,29,12.90
2009,09,23,08,30,13.00
2009,09,23,08,31,13.00
2009,09,23,08,32,13.10
2009,09,23,08,33,13.10
2009,09,23,08,34,13.20
2009,09,23,08,35,13.30
2009,09,23,08,36,13.30
2009,09,23,08,37,13.40
2009,09,23,08,38,13.40
2009,09,23,08,39,13.40
2009,09,23,08,40,13.50
2009,09,23,08,41,13.60
2009,09,23,08,42,13.60
2009,09,23,08,43,13.70
2009,09,23,08,44,13.80
2009,09,23,08,45,13.90
2009,09,23,08,46,14.00
2009,09,23,08,47,14.10
2009,09,23,08,48,14.30
2009,09,23,08,49,14.40
2009,09,23,08,50,14.50
2009,09,23,08,51,14.70
2009,09,23,08,52,14.80
2009,09,23,08,53,14.90
2009,09,23,08,54,15.00
2009,09,23,08,55,15.00
2009,09,23,08,56,15.10
2009,09,23,08,57,15.10
2009,09,23,08,58,15.20
2009,09,23,08,59,15.30
2009,09,23,09,00,15.30
2009,09,23,09,01,15.40
2009,09,23,09,02,15.50
2009,09,23,09,03,15.50
2009,09,23,09,04,15.60
2009,09,23,09,05,15.60
2009,09,23,09,06,15.70
2009,09,23,09,07,15.70
2009,09,23,09,08,15.70
2009,09,23,09,09,15.80
2009,09,23,09,10,15.80
2009,09,23,09,11,15.80
2009,09,23,09,12,15.90
2009,09,23,09,13,15.90
2009,09,23,09,14,16.00
2009,09,23,09,15,16.10
2009,09,23,09,16,16.10
2009,09,23,09,17,16.10
2009,09,23,09,18,16.20
2009,09,23,09,19,16.20
2009,09,23,09,20,16.30
2009,09,23,09,21,16.40
2009,09,23,09,22,16.50
2009,09,23,09,23,16.60
2009,09,23,09,24,16.60
2009,09,23,09,25,16.70
2009,09,23,09,26,16.80
2009,09,23,09,27,16.90
2009,09,23,09,28,16.90
2009,09,23,09,29,17.00
2009,09,23,09,30,17.10
2009,09,23,09,31,17.10
2009,09,23,09,32,17.20
2009,09,23,09,33,17.30
2009,09,23,09,34,17.30
2009,09,23,09,35,17.40
2009,09,23,09,36,17.40
2009,09,23,09,37,17.50
2009,09,23,09,38,17.60
2009,09,23,09,39,17.60
2009,09,23,09,40,17.60
2009,09,23,09,41,17.70
2009,09,23,09,42,17.70
2009,09,23,09,43,17.80
2009,09,23,09,44,17.80
2009,09,23,09,45,17.90
2009,09,23,09,46,18.00
2009,09,23,09,47,18.10
2009,09,23,09,48,18.10
2009,09,23,09,49,18.10
2009,09,23,09,50,18.10
2009,09,23,09,51,18.10
2009,09,23,09,52,18.10
2009,09,23,09,53,18.10
2009,09,23,09,54,18.10
2009,09,23,09,55,18.10
2009,09,23,09,56,18.10
2009,09,23,09,57,18.10
2009,09,23,09,58,18.10
2009,09,23,09,59,18.20
2009,09,23,10,00,18.20
2009,09,23,10,01,18.20
2009,09,23,10,02,18.30
2009,09,23,10,03,18.30
2009,09,23,10,04,18.40
2009,09,23,10,05,18.40
2009,09,23,10,06,18.40
2009,09,23,10,07,18.40
2009,09,23,10,08,18.50
2009,09,23,10,09,18.60
2009,09,23,10,10,18.60
2009,09,23,10,11,18.70
2009,09,23,10,12,18.80
2009,09,23,10,13,18.80
2009,09,23,10,14,18.90
2009,09,23,10,15,18.90
2009,09,23,10,16,19.00
2009,09,23,10,17,19.00
2009,09,23,10,18,19.00
2009,09,23,10,19,19.00
2009,09,23,10,20,19.00
2009,09,23,10,21,19.00
2009,09,23,10,22,19.00
2009,09,23,10,23,19.00
2009,09,23,10,24,19.10
2009,09,23,10,25,19.20
2009,09,23,10,26,19.20
2009,09,23,10,27,19.30
2009,09,23,10,28,19.30
2009,09,23,10,29,19.40
2009,09,23,10,30,19.40
2009,09,23,10,31,19.50
2009,09,23,10,32,19.50
2009,09,23,10,33,19.50
2009,09,23,10,34,19.50
2009,09,23,10,35,19.60
2009,09,23,10,36,19.60
2009,09,23,10,37,19.60
2009,09,23,10,38,19.60
2009,09,23,10,39,19.70
2009,09,23,10,40,19.70
2009,09,23,10,41,19.70
2009,09,23,10,42,19.80
2009,09,23,10,43,19.80
2009,09,23,10,44,19.80
2009,09,23,10,45,19.80
2009,09,23,10,46,19.90
2009,09,23,10,47,19.80
2009,09,23,10,48,19.80
2009,09,23,10,49,19.80
2009,09,23,10,50,19.70
2009,09,23,10,51,19.70
2009,09,23,10,52,19.70
2009,09,23,10,53,19.70
2009,09,23,10,54,19.80
2009,09,23,10,55,19.80
2009,09,23,10,56,19.90
2009,09,23,10,57,20.00
2009,09,23,10,58,20.10
2009,09,23,10,59,20.10
2009,09,23,11,00,20.10
2009,09,23,11,01,20.10
2009,09,23,11,02,20.20
2009,09,23,11,03,20.20
2009,09,23,11,04,20.20
2009,09,23,11,05,20.20
2009,09,23,11,06,20.30
2009,09,23,11,07,20.30
2009,09,23,11,08,20.30
2009,09,23,11,09,20.40
2009,09,23,11,10,20.40
2009,09,23,11,11,20.50
2009,09,23,11,12,20.60
2009,09,23,11,13,20.70
2009,09,23,11,14,20.80
2009,09,23,11,15,20.80
2009,09,23,11,16,20.80
2009,09,23,11,17,20.70
2009,09,23,11,18,20.60
2009,09,23,11,19,20.60
2009,09,23,11,20,20.60
2009,09,23,11,21,20.60
2009,09,23,11,22,20.50
2009,09,23,11,23,20.50
2009,09,23,11,24,20.60
2009,09,23,11,25,20.60
2009,09,23,11,26,20.60
2009,09,23,11,27,20.70
2009,09,23,11,28,20.70
2009,09,23,11,29,20.70
2009,09,23,11,30,20.80
2009,09,23,11,31,20.80
2009,09,23,11,32,20.80
2009,09,23,11,33,20.90
2009,09,23,11,34,21.00
2009,09,23,11,35,21.00
2009,09,23,11,36,21.10
2009,09,23,11,37,21.10
2009,09,23,11,38,21.20
2009,09,23,11,39,21.30
2009,09,23,11,40,21.30
2009,09,23,11,41,21.40
2009,09,23,11,42,21.50
2009,09,23,11,43,21.60
2009,09,23,11,44,21.60
2009,09,23,11,45,21.60
2009,09,23,11,46,21.60
2009,09,23,11,47,21.60
2009,09,23,11,48,21.60
2009,09,23,11,49,21.60
2009,09,23,11,50,21.70
2009,09,23,11,51,21.70
2009,09,23,11,52,21.80
2009,09,23,11,53,21.80
2009,09,23,11,54,21.80
2009,09,23,11,55,21.70
2009,09,23,11,56,21.70
2009,09,23,11,57,21.70
2009,09,23,11,58,21.70
2009,09,23,11,59,21.70
2009,09,23,12,00,21.80
2009,09,23,12,01,21.80
2009,09,23,12,02,21.80
2009,09,23,12,03,21.80
2009,09,23,12,04,21.80
2009,09,23,12,05,21.90
2009,09,23,12,06,22.10
2009,09,23,12,07,22.20
2009,09,23,12,08,22.40
2009,09,23,12,09,22.60
2009,09,23,12,10,22.80
2009,09,23,12,11,22.80
2009,09,23,12,12,22.80
2009,09,23,12,13,22.70
2009,09,23,12,14,22.70
2009,09,23,12,15,22.70
2009,09,23,12,16,22.80
2009,09,23,12,17,22.80
2009,09,23,12,18,22.80
2009,09,23,12,19,22.80
2009,09,23,12,20,22.80
2009,09,23,12,21,22.80
2009,09,23,12,22,22.90
2009,09,23,12,23,22.90
2009,09,23,12,24,22.90
2009,09,23,12,25,22.80
2009,09,23,12,26,22.80
2009,09,23,12,27,22.80
2009,09,23,12,28,22.80
2009,09,23,12,29,22.90
2009,09,23,12,30,22.90
2009,09,23,12,31,22.90
2009,09,23,12,32,22.90
2009,09,23,12,33,22.80
2009,09,23,12,34,22.80
2009,09,23,12,35,22.80
2009,09,23,12,36,22.80
2009,09,23,12,37,22.90
2009,09,23,12,38,22.90
2009,09,23,12,39,22.90
2009,09,23,12,40,22.90
2009,09,23,12,41,22.90
2009,09,23,12,42,22.90
2009,09,23,12,43,23.00
2009,09,23,12,44,23.00
2009,09,23,12,45,23.10
2009,09,23,12,46,23.20
2009,09,23,12,47,23.20
2009,09,23,12,48,23.10
2009,09,23,12,49,23.10
2009,09,23,12,50,23.10
2009,09,23,12,51,23.10
2009,09,23,12,52,23.10
2009,09,23,12,53,23.10
2009,09,23,12,54,23.10
2009,09,23,12,55,23.10
2009,09,23,12,56,23.20
2009,09,23,12,57,23.30
2009,09,23,12,58,23.30
2009,09,23,12,59,23.30
2009,09,23,13,00,23.30
2009,09,23,13,01,23.30
2009,09,23,13,02,23.30
2009,09,23,13,03,23.30
2009,09,23,13,04,23.30
2009,09,23,13,05,23.10
2009,09,23,13,06,22.90
2009,09,23,13,07,22.80
2009,09,23,13,08,22.70
2009,09,23,13,09,22.60
2009,09,23,13,10,22.40
2009,09,23,13,11,22.30
2009,09,23,13,12,22.20
2009,09,23,13,13,22.30
2009,09,23,13,14,22.30
2009,09,23,13,15,22.40
2009,09,23,13,16,22.40
2009,09,23,13,17,22.50
2009,09,23,13,18,22.50
2009,09,23,13,19,22.40
2009,09,23,13,20,22.40
2009,09,23,13,21,22.40
2009,09,23,13,22,22.30
2009,09,23,13,23,22.30
2009,09,23,13,24,22.40
2009,09,23,13,25,22.40
2009,09,23,13,26,22.50
2009,09,23,13,27,22.60
2009,09,23,13,28,22.70
2009,09,23,13,29,22.80
2009,09,23,13,30,22.90
2009,09,23,13,31,23.00
2009,09,23,13,32,23.00
2009,09,23,13,33,23.10
2009,09,23,13,34,23.10
2009,09,23,13,35,23.20
2009,09,23,13,36,23.10
2009,09,23,13,37,23.00
2009,09,23,13,38,22.90
2009,09,23,13,39,23.00
2009,09,23,13,40,23.00
2009,09,23,13,41,23.00
2009,09,23,13,42,22.90
2009,09,23,13,43,22.90
2009,09,23,13,44,22.90
2009,09,23,13,45,22.80
2009,09,23,13,46,22.60
2009,09,23,13,47,22.40
2009,09,23,13,48,22.30
2009,09,23,13,49,22.30
2009,09,23,13,50,22.20
2009,09,23,13,51,22.20
2009,09,23,13,52,22.20
2009,09,23,13,53,22.20
2009,09,23,13,54,22.30
2009,09,23,13,55,22.20
2009,09,23,13,56,22.20
2009,09,23,13,57,22.10
2009,09,23,13,58,22.10
2009,09,23,13,59,22.10
2009,09,23,14,00,22.10
2009,09,23,14,01,22.10
2009,09,23,14,02,22.20
2009,09,23,14,03,22.20
2009,09,23,14,04,22.30
2009,09,23,14,05,22.30
2009,09,23,14,06,22.40
2009,09,23,14,07,22.50
2009,09,23,14,08,22.50
2009,09,23,14,09,22.40
2009,09,23,14,10,22.30
2009,09,23,14,11,22.20
2009,09,23,14,12,22.10
2009,09,23,14,13,22.00
2009,09,23,14,14,21.80
2009,09,23,14,15,21.70
2009,09,23,14,16,21.60
2009,09,23,14,17,21.50
2009,09,23,14,18,21.50
2009,09,23,14,19,21.60
2009,09,23,14,20,21.70
2009,09,23,14,21,21.80
2009,09,23,14,22,22.00
2009,09,23,14,23,22.10
2009,09,23,14,24,22.30
2009,09,23,14,25,22.50
2009,09,23,14,26,22.60
2009,09,23,14,27,22.80
2009,09,23,14,28,23.00
2009,09,23,14,29,23.20
2009,09,23,14,30,23.30
2009,09,23,14,31,23.40
2009,09,23,14,32,23.40
2009,09,23,14,33,23.40
2009,09,23,14,34,23.40
2009,09,23,14,35,23.30
2009,09,23,14,36,23.30
2009,09,23,14,37,23.30
2009,09,23,14,38,23.30
2009,09,23,14,39,23.30
2009,09,23,14,40,23.30
2009,09,23,14,41,23.30
2009,09,23,14,42,23.40
2009,09,23,14,43,23.40
2009,09,23,14,44,23.50
2009,09,23,14,45,23.60
2009,09,23,14,46,23.70
2009,09,23,14,47,23.90
2009,09,23,14,48,24.00
2009,09,23,14,49,24.20
2009,09,23,14,50,24.30
2009,09,23,14,51,24.40
2009,09,23,14,52,24.40
2009,09,23,14,53,24.40
2009,09,23,14,54,24.40
2009,09,23,14,55,24.40
2009,09,23,14,56,24.40
2009,09,23,14,57,24.40
2009,09,23,14,58,24.40
2009,09,23,14,59,24.40
2009,09,23,15,00,24.40
2009,09,23,15,01,24.30
2009,09,23,15,02,24.30
2009,09,23,15,03,24.20
2009,09,23,15,04,24.10
2009,09,23,15,05,24.00
2009,09,23,15,06,23.90
2009,09,23,15,07,23.90
2009,09,23,15,08,23.90
2009,09,23,15,09,24.00
2009,09,23,15,10,24.00
2009,09,23,15,11,24.10
2009,09,23,15,12,24.10
2009,09,23,15,13,24.10
2009,09,23,15,14,24.10
2009,09,23,15,15,24.00
2009,09,23,15,16,23.90
2009,09,23,15,17,23.80
2009,09,23,15,18,23.70
2009,09,23,15,19,23.50
2009,09,23,15,20,23.40
2009,09,23,15,21,23.30
2009,09,23,15,22,23.20
2009,09,23,15,23,23.20
2009,09,23,15,24,23.20
2009,09,23,15,25,23.20
2009,09,23,15,26,23.20
2009,09,23,15,27,23.30
2009,09,23,15,28,23.30
2009,09,23,15,29,23.30
2009,09,23,15,30,23.30
2009,09,23,15,31,23.30
2009,09,23,15,32,23.20
2009,09,23,15,33,23.10
2009,09,23,15,34,23.00
2009,09,23,15,35,22.80
2009,09,23,15,36,22.70
2009,09,23,15,37,22.50
2009,09,23,15,38,22.40
2009,09,23,15,39,22.30
2009,09,23,15,40,22.30
2009,09,23,15,41,22.30
2009,09,23,15,42,22.20
2009,09,23,15,43,22.10
2009,09,23,15,44,22.00
2009,09,23,15,45,21.80
2009,09,23,15,46,21.80
2009,09,23,15,47,21.80
2009,09,23,15,48,21.70
2009,09,23,15,49,21.70
2009,09,23,15,50,21.70
2009,09,23,15,51,21.70
2009,09,23,15,52,21.70
2009,09,23,15,53,21.80
2009,09,23,15,54,21.80
2009,09,23,15,55,21.90
2009,09,23,15,56,22.00
2009,09,23,15,57,22.10
2009,09,23,15,58,22.20
2009,09,23,15,59,22.30
2009,09,23,16,00,22.30
2009,09,23,16,01,22.40
2009,09,23,16,02,22.50
2009,09,23,16,03,22.60
2009,09,23,16,04,22.60
2009,09,23,16,05,22.70
2009,09,23,16,06,22.80
2009,09,23,16,07,22.80
2009,09,23,16,08,22.90
2009,09,23,16,09,22.90
2009,09,23,16,10,23.00
2009,09,23,16,11,23.10
2009,09,23,16,12,23.10
2009,09,23,16,13,23.20
2009,09,23,16,14,23.20
2009,09,23,16,15,23.30
2009,09,23,16,16,23.30
2009,09,23,16,17,23.40
2009,09,23,16,18,23.40
2009,09,23,16,19,23.40
2009,09,23,16,20,23.40
2009,09,23,16,21,23.40
2009,09,23,16,22,23.50
2009,09,23,16,23,23.60
2009,09,23,16,24,23.60
2009,09,23,16,25,23.70
2009,09,23,16,26,23.80
2009,09,23,16,27,23.90
2009,09,23,16,28,23.90
2009,09,23,16,29,24.00
2009,09,23,16,30,24.00
2009,09,23,16,31,24.10
2009,09,23,16,32,24.10
2009,09,23,16,33,24.10
2009,09,23,16,34,24.10
2009,09,23,16,35,24.10
2009,09,23,16,36,24.10
2009,09,23,16,37,24.10
2009,09,23,16,38,24.20
2009,09,23,16,39,24.20
2009,09,23,16,40,24.20
2009,09,23,16,41,24.30
2009,09,23,16,42,24.30
2009,09,23,16,43,24.30
2009,09,23,16,44,24.40
2009,09,23,16,45,24.50
2009,09,23,16,46,24.60
2009,09,23,16,47,24.70
2009,09,23,16,48,24.70
2009,09,23,16,49,24.80
2009,09,23,16,50,24.80
2009,09,23,16,51,24.80
2009,09,23,16,52,24.80
2009,09,23,16,53,24.70
2009,09,23,16,54,24.70
2009,09,23,16,55,24.70
2009,09,23,16,56,24.70
2009,09,23,16,57,24.80
2009,09,23,16,58,24.80
2009,09,23,16,59,24.80
2009,09,23,17,00,24.80
2009,09,23,17,01,24.90
2009,09,23,17,02,24.90
2009,09,23,17,03,25.00
2009,09,23,17,04,25.10
2009,09,23,17,05,25.20
2009,09,23,17,06,25.20
2009,09,23,17,07,25.20
2009,09,23,17,08,25.20
2009,09,23,17,09,25.20
2009,09,23,17,10,25.20
2009,09,23,17,11,25.10
2009,09,23,17,12,25.10
2009,09,23,17,13,25.10
2009,09,23,17,14,25.10
2009,09,23,17,15,25.10
2009,09,23,17,16,25.10
2009,09,23,17,17,25.20
2009,09,23,17,18,25.20
2009,09,23,17,19,25.30
2009,09,23,17,20,25.40
2009,09,23,17,21,25.50
2009,09,23,17,22,25.70
2009,09,23,17,23,25.80
2009,09,23,17,24,25.90
2009,09,23,17,25,25.90
2009,09,23,17,26,26.00
2009,09,23,17,27,26.10
2009,09,23,17,28,26.20
2009,09,23,17,29,26.30